Volver al catálogo

KUIPER-00607

ActivoComunicacionesLEO
NORAD 69290·PAYLOAD·🇺🇸 United States

Lanzado May 29, 2026 desde Vandenberg Space Force Base

Loading…

Próximos Pases (próximas 24 horas)

TLE

ActualizadoSource: CelesTrak SupGP

Época: Sep 14, 2026, 22:51 UTC

1 69290C 26118Z   26257.95263889  .00002080  00000+0  27224-3 0  2572
2 69290  51.9014 348.7329 0001279   7.3039 262.6853 14.79930832    14

Sigue KUIPER-00607 en tiempo real con AllMySat

Download on the App Store